Voltar ao catálogo

KUIPER-00408

AtivoComunicaçõesLEO
NORAD 68924·PAYLOAD·🇺🇸 United States

Lançado Apr 30, 2026 de Guiana Space Centre

Loading…

Próximas Passagens (próximas 24 horas)

TLE

AtualizadoSource: CelesTrak SupGP

Época: Sep 15, 2026, 02:04 UTC

1 68924C 26098F   26258.08636574  .00002190  00000+0  28662-3 0  2582
2 68924  51.9001  15.5511 0000507  99.7197  51.3842 14.79929641    15

Acompanhe KUIPER-00408 em tempo real com AllMySat

Download on the App Store